Temperature
2 2 2 1 2 1 1 1 1 3 3 4 4 3 3 3 3 3 3 3 3 3 3 3 3 3 3 4 4 4 4 4 4 4 4 4 5 5 5 6 6 6 6 6
1 2 1 2 2 2 2 2 2 2 3 4 3 3 3 3 3 2 3 3 3 3 3 3 3 3 3 3 3 3 4 4 3 4 4 4 4 5 5 5 6 6 6 6
2 1 1 2 2 2 2 2 2 2 3 3 2 2 2 2 2 2 2 3 3 3 3 3 2 2 3 3 3 3 3 3 3 3 3 4 4 4 5 5 5 6 6 6
1 0 2 3 2 2 2 2 2 2 2 2 2 2 2 3 2 2 2 2 3 3 2 2 2 2 2 2 3 3 3 3 3 3 3 4 4 4 4 5 5 6 6 6
1 0 1 2 2 1 1 1 1 1 2 1 2 1 2 3 3 3 2 2 2 2 2 2 2 2 2 2 2 2 2 3 3 3 3 3 3 4 4 4 5 5 6 6
1 0 1 2 2 1 1 1 1 1 1 0 0 -1 1 3 2 2 2 2 2 2 2 1 1 1 1 2 2 2 2 2 2 2 2 3 3 3 4 4 5 5 6 6
1 1 1 1 1 1 1 1 2 1 1 0 -1 0 2 2 2 2 2 2 1 1 1 1 1 1 1 1 1 1 1 2 2 2 2 2 3 3 4 4 4 5 5 5
-0 0 1 1 -0 1 1 2 2 2 2 1 1 2 1 1 1 1 1 1 1 1 1 1 0 0 0 1 1 1 1 1 2 2 2 2 2 3 3 4 4 4 5 5
0 1 1 1 1 2 2 1 2 2 2 1 1 1 1 1 1 1 0 0 0 -0 0 0 0 0 -0 0 0 0 0 1 1 1 1 1 2 2 3 3 3 4 4 4
-2 -1 -1 0 1 1 2 1 1 1 1 1 0 0 -0 -0 -0 -0 -0 -0 -0 -1 -1 -0 -0 -0 -0 -0 -0 -0 -0 0 0 1 1 1 1 2 2 3 3 3 4 4
-2 -2 -1 -0 1 1 1 1 0 0 0 -0 -0 -1 -1 -1 -1 -1 -1 -1 -1 -1 -1 -1 -1 -1 -1 -1 -1 -1 -1 -0 0 0 0 1 1 1 2 2 2 3 3 4
-1 -1 -1 -1 1 1 0 -0 -0 -1 -1 -1 -1 -1 -2 -2 -1 -2 -2 -2 -2 -2 -2 -2 -2 -1 -1 -1 -2 -2 -1 -1 -1 -0 -0 0 1 1 1 2 2 3 3 3
-0 0 -0 -0 -0 -1 -1 -1 -1 -1 -2 -2 -2 -2 -2 -2 -2 -2 -2 -2 -3 -3 -2 -2 -2 -2 -2 -2 -2 -2 -2 -2 -1 -1 -1 -0 -0 0 1 2 2 2 3 3
-1 -1 -2 -1 -1 -1 -2 -2 -2 -2 -2 -2 -2 -3 -3 -3 -3 -3 -3 -3 -3 -3 -3 -3 -3 -3 -3 -3 -3 -3 -2 -2 -2 -1 -1 -1 -1 -0 0 1 1 2 3 3
-2 -2 -2 -2 -2 -2 -3 -3 -3 -3 -3 -3 -3 -3 -3 -4 -4 -4 -4 -4 -4 -4 -4 -4 -4 -3 -3 -3 -3 -3 -3 -3 -2 -2 -2 -2 -1 -1 -0 0 1 1 2 2
-3 -3 -3 -3 -4 -4 -4 -4 -4 -4 -4 -4 -4 -4 -4 -4 -4 -4 -4 -5 -5 -4 -4 -4 -4 -4 -4 -4 -4 -4 -3 -3 -3 -2 -2 -2 -2 -1 -1 -0 0 1 1 2
-4 -4 -4 -5 -5 -4 -5 -5 -5 -5 -5 -5 -5 -5 -5 -5 -5 -5 -5 -5 -5 -5 -5 -5 -4 -4 -4 -4 -4 -4 -4 -3 -3 -3 -2 -2 -2 -1 -1 -0 -0 0 1 1
-5 -5 -5 -5 -5 -5 -5 -5 -5 -6 -6 -6 -6 -6 -6 -6 -6 -6 -6 -6 -6 -5 -5 -5 -5 -5 -5 -5 -5 -5 -4 -4 -4 -3 -3 -2 -2 -2 -1 -1 -0 0 1 1
-5 -5 -5 -5 -6 -6 -6 -6 -6 -6 -6 -6 -6 -6 -6 -7 -7 -7 -7 -7 -6 -6 -5 -5 -5 -5 -5 -5 -5 -5 -5 -5 -4 -4 -3 -3 -3 -2 -2 -1 -1 -0 0 1
-6 -6 -6 -6 -6 -6 -6 -6 -7 -7 -7 -7 -7 -7 -7 -7 -7 -7 -7 -7 -7 -6 -6 -6 -6 -6 -5 -5 -5 -5 -5 -5 -5 -4 -4 -3 -3 -2 -2 -2 -1 -0 0 1
-6 -6 -6 -6 -7 -7 -7 -7 -7 -7 -7 -7 -7 -7 -7 -7 -7 -7 -7 -7 -6 -6 -6 -6 -6 -6 -6 -6 -6 -5 -5 -5 -5 -5 -4 -4 -3 -3 -3 -2 -1 -1 -0 0
-7 -7 -7 -7 -7 -7 -7 -7 -7 -7 -7 -7 -7 -8 -8 -7 -7 -7 -7 -7 -7 -7 -7 -7 -7 -6 -6 -6 -6 -6 -6 -5 -5 -5 -5 -4 -4 -3 -3 -2 -2 -1 -0 0
-7 -7 -7 -7 -8 -8 -7 -7 -8 -8 -8 -8 -8 -8 -8 -8 -8 -8 -8 -7 -7 -7 -7 -7 -7 -7 -7 -6 -6 -6 -6 -6 -5 -5 -5 -4 -4 -3 -3 -2 -2 -1 -1 -0
-8 -8 -8 -8 -8 -8 -8 -8 -8 -8 -8 -8 -8 -8 -8 -8 -8 -8 -8 -7 -7 -7 -7 -7 -7 -7 -7 -6 -6 -6 -6 -6 -5 -5 -4 -4 -4 -3 -3 -2 -2 -1 -1 -0
-8 -8 -8 -8 -8 -8 -8 -8 -8 -8 -8 -8 -8 -8 -8 -8 -8 -8 -7 -7 -7 -7 -7 -7 -7 -7 -6 -6 -6 -6 -5 -5 -5 -4 -4 -4 -4 -3 -3 -2 -2 -1 -1 -1
-9 -9 -9 -9 -9 -9 -9 -9 -9 -9 -9 -9 -8 -8 -8 -8 -8 -8 -7 -7 -7 -7 -7 -7 -6 -6 -6 -6 -6 -5 -5 -5 -4 -4 -4 -4 -3 -3 -3 -2 -2 -1 -1 -1
-9 -9 -9 -9 -9 -9 -9 -9 -9 -9 -9 -9 -9 -8 -8 -8 -8 -8 -7 -7 -7 -7 -7 -7 -6 -6 -6 -6 -5 -5 -5 -5 -4 -4 -4 -4 -3 -3 -3 -2 -2 -2 -1 -1
Wind_Speed
14 12 8 12 13 12 15 15 16 20 22 26 20 16 14 12 12 11 11 11 10 10 9 9 9 9 9 9 9 9 8 8 8 8 7 7 7 7 6 6 6 8 8 8
11 12 13 19 19 17 19 18 21 24 27 24 18 13 12 12 11 11 12 11 11 10 10 10 10 10 9 9 10 9 8 8 8 7 7 7 6 6 6 6 6 6 8 8
10 6 6 14 14 16 12 12 13 19 22 16 13 13 12 10 9 10 11 11 10 10 9 9 9 9 9 9 9 8 8 8 8 6 6 6 5 5 6 6 6 6 7 8
6 3 14 11 5 10 13 16 15 14 15 13 12 11 10 8 8 10 10 10 9 8 8 8 8 8 8 8 8 8 8 8 7 7 6 6 5 6 6 6 5 5 6 8
5 8 12 11 5 6 8 11 10 13 14 12 9 7 8 7 6 8 9 9 8 7 7 7 8 8 8 8 7 7 8 8 8 7 7 6 6 6 6 5 6 5 5 5
7 7 9 9 4 3 2 8 7 7 9 9 3 5 8 7 6 7 7 7 7 7 7 7 8 7 7 8 8 8 9 9 8 7 6 7 7 6 6 5 6 4 4 4
12 11 10 7 3 5 4 8 4 4 6 5 6 8 8 8 7 7 7 8 7 7 7 7 7 6 7 7 8 9 9 8 8 7 6 7 7 6 6 5 4 3 3 3
7 9 11 5 7 8 8 3 3 5 6 7 8 10 9 8 9 8 8 8 7 7 9 8 7 6 7 8 9 9 8 8 8 7 6 6 6 6 5 4 3 3 2 2
11 11 5 6 7 6 3 5 6 6 7 7 8 9 10 9 9 9 9 8 7 7 9 9 7 5 7 9 9 9 8 8 8 7 6 5 5 5 4 2 2 2 2 2
7 9 7 7 7 7 7 8 8 7 8 7 9 10 10 10 9 9 8 8 7 7 9 10 8 7 7 8 8 8 9 8 8 7 6 5 4 4 3 2 2 2 2 2
8 8 7 8 9 9 8 8 8 8 8 8 9 10 10 10 10 9 9 8 7 8 9 11 10 9 7 7 7 8 8 8 7 6 5 5 4 4 4 4 4 3 3 3
11 8 7 8 6 6 8 9 9 9 9 8 8 11 10 10 9 8 9 8 8 9 9 10 9 9 8 7 6 7 7 7 6 5 4 4 4 5 5 5 6 6 5 5
10 8 8 9 8 6 7 8 8 8 9 10 9 9 9 9 9 8 9 9 9 10 10 10 9 9 8 7 7 7 7 7 6 5 5 4 4 3 4 5 4 4 4 4
7 5 7 7 8 7 7 8 8 8 8 8 8 7 7 8 9 9 9 9 9 9 9 9 9 9 7 7 7 7 7 8 7 5 5 4 4 4 3 3 3 1 0 2
6 6 8 7 7 6 5 5 6 8 7 7 6 7 7 9 10 10 9 9 9 9 9 9 9 9 7 7 8 8 7 6 6 5 5 4 4 4 3 3 3 1 0 1
5 4 5 5 6 6 5 5 6 8 8 8 8 8 8 9 9 10 9 8 8 10 10 10 10 9 7 7 8 7 6 10 8 6 4 4 4 3 3 2 2 1 2 2
3 4 4 5 6 7 6 6 7 8 8 8 9 9 9 9 9 10 9 8 9 10 10 10 10 10 8 7 7 6 5 7 9 7 5 5 4 3 3 2 2 2 2 2
3 4 5 6 7 8 8 7 7 8 8 9 9 8 8 9 10 11 11 10 10 10 9 9 9 9 8 7 6 5 5 5 5 5 5 4 3 3 3 3 2 2 2 1
3 4 5 6 6 6 7 7 8 8 8 8 8 9 9 10 10 11 10 10 11 11 9 7 11 9 8 8 8 5 5 6 6 5 5 5 5 3 3 3 3 3 2 2
4 5 5 5 5 5 6 7 7 7 7 7 8 9 10 10 10 10 11 11 9 8 9 10 10 8 8 8 9 6 6 6 6 5 4 4 3 3 3 3 3 3 2 2
6 6 6 6 6 6 6 6 6 7 8 8 8 9 10 11 10 9 9 10 10 9 9 12 8 7 7 7 9 6 6 6 5 5 5 4 3 3 3 3 3 2 2 2
5 6 6 6 6 7 6 6 6 7 8 9 9 9 10 11 10 10 10 9 10 13 9 7 6 9 9 10 6 5 5 5 5 4 4 4 3 3 3 3 3 2 2 3
5 5 6 6 6 7 7 7 7 7 8 9 10 10 10 10 9 9 10 8 7 12 9 7 9 13 13 8 5 5 5 5 5 4 4 4 3 3 3 3 2 2 3 3
5 5 6 6 5 6 7 8 8 7 8 9 9 9 9 9 9 8 8 12 14 13 8 10 13 13 11 4 4 4 4 4 4 4 4 3 3 3 3 3 3 3 3 3
5 5 5 5 6 5 7 8 8 8 8 7 9 9 8 7 8 9 9 9 12 12 8 9 11 10 6 3 3 3 4 4 4 4 3 3 3 3 3 3 3 3 3 3
4 4 5 5 5 5 6 6 6 7 7 8 9 8 8 7 8 8 7 8 9 10 7 6 6 6 4 3 2 3 3 3 3 3 3 3 3 3 3 4 4 4 3 4
4 4 4 5 5 5 5 5 6 7 7 8 9 9 9 9 8 8 8 7 6 6 5 5 4 3 2 2 1 1 1 2 2 2 2 3 3 3 4 4 4 3 4 4
Wind_Direction
251 256 244 247 247 225 225 232 245 261 267 274 280 283 287 290 293 297 299 301 300 300 301 303 304 304 304 302 301 299 293 286 281 281 281 276 272 274 265 252 244 225 209 210
260 250 250 261 256 243 243 244 248 261 270 271 278 282 283 284 287 292 296 297 298 300 304 305 304 304 306 304 303 303 297 289 287 287 286 277 272 274 269 261 249 231 209 207
265 269 276 262 243 235 235 228 230 249 260 275 284 282 280 281 283 286 289 291 293 296 296 298 299 300 300 298 301 303 301 297 295 291 286 277 276 278 272 265 251 237 218 209
264 270 255 257 207 218 236 247 237 245 261 270 273 282 281 271 274 284 287 289 291 294 297 299 300 303 303 301 303 304 304 305 307 301 293 289 277 273 274 273 259 239 226 209
232 249 266 278 241 202 220 259 241 244 261 272 282 303 290 270 261 266 274 280 281 280 288 295 300 306 310 308 308 310 308 308 307 303 300 300 284 277 276 275 267 239 209 204
228 240 251 255 233 173 143 272 258 232 255 269 282 292 288 291 283 276 279 284 287 290 294 296 300 309 312 310 313 311 307 305 303 300 299 296 286 279 278 273 265 238 221 203
235 245 258 253 189 131 196 255 267 230 252 252 233 244 271 291 287 280 282 286 291 296 295 291 297 308 307 305 305 304 305 303 302 301 298 291 295 287 281 276 269 235 216 207
214 235 252 202 153 190 229 260 260 256 252 250 257 270 280 283 283 287 290 293 295 297 296 297 299 302 299 296 300 305 307 306 302 300 299 298 293 292 283 267 258 220 187 202
210 231 249 183 204 231 244 257 258 257 260 260 270 277 282 283 283 284 284 287 290 288 295 300 301 296 286 294 303 309 309 307 304 298 292 290 291 295 290 267 251 224 187 205
249 259 258 254 259 261 253 254 264 263 267 266 269 276 281 282 283 283 284 285 287 291 295 299 301 297 282 289 299 306 306 303 302 300 300 303 298 289 279 258 251 227 201 205
249 267 282 264 250 256 268 268 268 271 268 265 269 277 277 279 280 281 284 284 284 284 286 290 297 297 296 296 298 301 302 301 304 301 296 299 296 289 283 274 255 244 218 202
246 242 235 258 258 257 264 268 269 277 283 278 269 273 276 276 277 279 281 282 285 285 284 288 293 295 300 300 299 300 305 305 301 300 297 300 305 311 298 283 282 265 247 228
247 259 254 266 275 270 266 272 277 276 274 279 279 274 276 279 283 281 281 283 283 283 285 288 291 293 298 300 300 295 296 299 298 295 293 296 297 299 310 320 304 261 244 233
250 263 269 268 272 281 276 278 280 280 277 277 281 284 283 285 287 285 283 284 283 285 286 288 289 291 296 297 296 293 291 293 291 287 283 283 282 278 278 285 297 292 203 190
262 249 254 274 286 294 293 296 298 297 298 297 294 291 290 289 288 288 289 291 291 289 290 292 292 293 298 295 292 290 288 289 288 282 276 275 275 274 269 269 269 262 160 140
285 283 275 279 288 298 305 303 297 297 300 299 300 297 293 291 291 293 294 294 292 291 291 291 290 293 296 292 291 289 287 288 290 284 275 271 269 270 266 261 254 236 217 187
281 294 299 299 297 298 295 288 284 288 293 294 295 298 301 301 299 297 296 294 288 284 285 286 288 292 291 288 284 284 285 288 289 287 275 265 259 255 254 248 242 236 236 216
251 260 267 271 279 288 293 293 291 291 290 291 296 298 298 295 294 295 298 300 297 292 286 283 285 290 289 286 281 277 276 278 278 277 274 265 259 248 242 242 236 230 237 229
299 289 289 286 282 280 284 290 293 294 295 296 296 294 290 289 290 293 296 296 293 292 292 290 294 295 289 285 285 273 268 269 272 272 270 263 262 244 230 230 229 225 222 219
317 311 304 301 297 291 290 294 297 298 297 297 296 296 296 295 294 294 293 287 278 276 284 289 291 287 282 280 282 271 265 263 263 262 263 256 245 234 226 226 226 220 215 213
316 317 315 312 309 305 298 297 299 299 302 300 296 294 294 295 294 292 290 290 288 285 287 290 290 285 283 281 279 270 262 259 257 251 251 249 237 225 218 216 223 222 209 193
314 314 313 312 311 311 310 307 301 300 302 302 300 297 297 298 299 294 281 274 285 294 295 284 283 284 287 285 274 266 258 252 249 246 242 240 230 220 217 213 212 210 194 177
308 308 309 309 308 307 309 309 305 303 300 300 300 300 298 295 294 294 297 291 292 295 297 283 284 288 290 283 265 255 249 245 243 241 236 232 226 215 208 205 199 186 170 157
310 312 311 310 312 314 314 314 312 308 302 299 298 297 297 299 297 287 282 293 301 300 296 293 295 296 292 277 259 249 243 241 238 235 231 223 214 203 194 185 172 160 149 144
310 311 314 319 321 314 309 312 315 313 312 309 306 304 300 291 289 296 296 297 302 305 302 301 302 302 299 274 252 244 240 240 234 224 218 201 194 190 181 167 154 149 143 140
316 315 310 305 301 304 308 311 312 313 315 316 317 316 314 310 303 303 304 303 304 308 307 305 305 302 296 282 261 249 238 237 235 219 196 188 184 176 158 146 143 144 140 139
322 322 322 323 322 317 313 311 311 312 315 316 315 316 318 318 319 321 319 316 318 319 318 315 314 314 312 308 296 272 245 218 199 184 178 176 167 152 143 139 139 138 139 140
Height
1453 1451 1454 1452 1450 1453 1453 1448 1444 1428 1422 1410 1407 1406 1404 1401 1398 1396 1392 1389 1386 1382 1379 1376 1373 1370 1367 1364 1361 1358 1355 1352 1349 1346 1344 1343 1341 1341 1341 1341 1342 1344 1346 1348
1448 1445 1447 1442 1436 1438 1437 1435 1431 1424 1414 1403 1402 1401 1399 1396 1394 1391 1388 1385 1382 1378 1375 1372 1369 1366 1362 1359 1357 1353 1350 1347 1344 1342 1340 1338 1337 1336 1336 1336 1337 1338 1340 1343
1442 1441 1442 1433 1422 1423 1423 1418 1419 1415 1403 1398 1398 1396 1394 1392 1390 1387 1384 1381 1378 1375 1372 1369 1366 1363 1359 1356 1352 1349 1346 1343 1340 1338 1335 1334 1333 1332 1332 1332 1332 1333 1335 1338
1440 1444 1433 1411 1408 1409 1409 1406 1405 1402 1397 1396 1394 1391 1389 1388 1386 1383 1380 1377 1373 1371 1368 1365 1363 1360 1356 1353 1349 1345 1342 1339 1336 1334 1332 1330 1329 1328 1328 1328 1328 1329 1331 1334
1437 1434 1421 1409 1405 1405 1406 1401 1396 1396 1393 1391 1390 1389 1385 1383 1382 1380 1377 1374 1370 1368 1365 1362 1359 1356 1352 1349 1345 1342 1338 1335 1333 1331 1328 1326 1326 1325 1325 1324 1324 1326 1328 1330
1429 1428 1417 1401 1398 1397 1401 1400 1390 1390 1389 1388 1388 1390 1382 1379 1378 1376 1373 1370 1367 1365 1362 1359 1356 1353 1349 1345 1342 1339 1335 1332 1330 1328 1326 1324 1322 1322 1321 1321 1321 1323 1325 1327
1420 1416 1406 1396 1395 1397 1403 1394 1386 1385 1385 1385 1385 1383 1379 1376 1374 1372 1370 1367 1364 1361 1358 1355 1353 1349 1346 1342 1339 1336 1332 1330 1327 1325 1323 1321 1319 1319 1318 1318 1318 1320 1321 1323
1415 1412 1401 1390 1393 1393 1388 1383 1383 1382 1381 1380 1379 1376 1374 1372 1370 1368 1365 1363 1360 1357 1353 1351 1349 1345 1342 1339 1336 1333 1330 1326 1324 1322 1321 1319 1317 1316 1315 1315 1315 1316 1318 1320
1399 1392 1384 1384 1383 1382 1382 1381 1380 1379 1377 1376 1374 1372 1370 1368 1366 1363 1361 1359 1356 1353 1349 1346 1344 1342 1338 1335 1332 1329 1326 1323 1320 1319 1317 1316 1314 1312 1312 1312 1312 1313 1315 1317
1393 1384 1382 1381 1379 1379 1379 1377 1376 1375 1374 1372 1369 1367 1365 1363 1360 1358 1356 1354 1351 1348 1345 1341 1339 1337 1335 1332 1328 1325 1322 1319 1316 1314 1313 1312 1311 1310 1309 1309 1310 1311 1313 1314
1386 1380 1379 1375 1375 1374 1373 1372 1371 1369 1368 1366 1364 1362 1360 1357 1355 1353 1351 1349 1346 1343 1340 1337 1334 1332 1330 1327 1324 1321 1317 1315 1312 1311 1309 1308 1308 1307 1306 1307 1308 1309 1311 1312
1376 1373 1374 1371 1370 1370 1369 1367 1365 1364 1361 1360 1359 1356 1354 1351 1349 1347 1345 1342 1340 1337 1334 1332 1329 1327 1325 1323 1320 1317 1314 1311 1310 1308 1307 1306 1305 1305 1305 1306 1307 1308 1309 1310
1368 1368 1367 1366 1365 1364 1363 1361 1360 1358 1356 1354 1353 1351 1348 1346 1344 1341 1339 1336 1334 1331 1329 1326 1323 1321 1319 1318 1315 1313 1310 1308 1306 1305 1304 1303 1303 1302 1302 1303 1304 1305 1306 1308
1364 1364 1362 1360 1360 1359 1357 1356 1354 1353 1351 1349 1347 1345 1343 1340 1338 1335 1333 1330 1328 1325 1323 1320 1318 1316 1314 1312 1310 1308 1306 1304 1303 1302 1301 1301 1300 1300 1300 1300 1301 1302 1304 1306
1359 1359 1358 1356 1355 1354 1352 1351 1349 1347 1345 1343 1342 1340 1337 1335 1332 1329 1327 1324 1322 1319 1317 1315 1312 1310 1309 1307 1305 1303 1301 1300 1299 1298 1298 1298 1297 1297 1298 1298 1299 1299 1302 1304
1355 1354 1353 1352 1350 1349 1347 1346 1344 1342 1340 1338 1336 1334 1332 1329 1326 1323 1321 1318 1316 1313 1311 1309 1307 1305 1304 1302 1299 1298 1296 1295 1295 1294 1294 1294 1294 1294 1295 1295 1296 1298 1299 1302
1352 1350 1349 1348 1346 1345 1343 1341 1340 1338 1335 1333 1331 1329 1326 1323 1320 1317 1314 1312 1310 1307 1305 1303 1301 1300 1298 1297 1295 1293 1291 1291 1290 1290 1290 1290 1291 1291 1292 1293 1294 1296 1297 1300
1349 1348 1347 1345 1343 1341 1339 1337 1335 1333 1331 1328 1326 1323 1321 1318 1314 1311 1309 1306 1303 1301 1299 1297 1296 1294 1293 1292 1290 1289 1288 1287 1286 1286 1286 1287 1287 1288 1289 1290 1292 1293 1295 1298
1346 1345 1343 1342 1340 1338 1335 1333 1331 1329 1326 1324 1321 1318 1315 1312 1309 1306 1303 1300 1297 1294 1292 1292 1290 1289 1287 1286 1285 1284 1283 1283 1282 1282 1283 1283 1285 1285 1287 1288 1290 1292 1293 1296
1343 1341 1340 1338 1336 1334 1331 1329 1327 1324 1322 1319 1316 1313 1310 1307 1304 1301 1298 1294 1292 1290 1288 1286 1284 1283 1282 1281 1280 1279 1279 1278 1278 1279 1279 1280 1281 1282 1284 1286 1287 1290 1292 1294
1340 1339 1336 1334 1332 1330 1328 1325 1323 1320 1317 1315 1312 1308 1305 1302 1299 1296 1292 1288 1286 1285 1282 1280 1279 1277 1276 1275 1275 1274 1274 1274 1274 1274 1275 1276 1277 1279 1281 1283 1285 1287 1289 1292
1338 1336 1334 1332 1329 1326 1324 1322 1320 1317 1313 1310 1307 1304 1300 1296 1293 1290 1287 1284 1281 1279 1277 1274 1273 1272 1271 1270 1269 1269 1269 1269 1270 1270 1271 1272 1274 1276 1278 1280 1282 1285 1287 1290
1336 1334 1331 1329 1326 1323 1321 1319 1316 1313 1310 1306 1303 1299 1296 1292 1289 1285 1281 1278 1276 1273 1271 1269 1268 1267 1266 1265 1264 1264 1264 1265 1266 1267 1268 1269 1271 1274 1276 1278 1280 1283 1286 1288
1334 1331 1329 1326 1324 1321 1318 1315 1312 1309 1306 1302 1299 1295 1291 1287 1283 1281 1277 1274 1271 1269 1266 1264 1263 1262 1261 1260 1260 1260 1260 1261 1262 1263 1265 1267 1269 1271 1274 1276 1279 1281 1284 1287
1331 1329 1326 1324 1321 1318 1315 1312 1309 1305 1302 1298 1295 1291 1288 1284 1280 1276 1273 1270 1267 1264 1262 1260 1259 1258 1257 1256 1256 1257 1257 1258 1259 1261 1262 1264 1267 1269 1272 1275 1278 1281 1284 1287
1329 1327 1324 1322 1319 1316 1313 1310 1306 1303 1299 1295 1291 1288 1284 1280 1277 1273 1270 1266 1264 1261 1259 1257 1255 1254 1254 1254 1254 1254 1255 1256 1258 1259 1261 1263 1266 1268 1271 1274 1277 1280 1283 1287
1327 1325 1322 1319 1317 1314 1311 1308 1305 1301 1297 1293 1289 1285 1281 1278 1274 1270 1267 1264 1261 1259 1257 1255 1253 1252 1252 1251 1252 1252 1253 1255 1256 1258 1260 1262 1265 1268 1271 1274 1277 1280 1283 1287